"read_dt","SO2 (ppb)","flags","PMT voltage (V)","lamp voltage (V)","lamp intensity (Hz)","internal temp (C)","react chamber temp (C)","sample flow (l/min)","pres (mmHg)","SO2 bkg (ppb)","SO2 coefficient"
2015-02-18 00:00:00,1989E-3,5C000000,-0724,0837,12077,030.0,045.5,0.450,746.4,01.17,0.508
2015-02-18 00:01:00,2044E-3,5C000000,-0724,0837,12194,029.9,045.5,0.451,746.4,01.17,0.508
2015-02-18 00:02:00,1876E-3,5C000000,-0724,0836,12156,029.7,045.5,0.451,746.4,01.17,0.508
2015-02-18 00:03:00,1878E-3,5C000000,-0724,0836,12134,029.6,045.5,0.451,746.4,01.17,0.508
2015-02-18 00:04:00,1814E-3,5C000000,-0724,0836,12185,029.4,045.5,0.452,746.4,01.17,0.508
2015-02-18 00:05:00,1911E-3,5C000000,-0724,0836,12104,029.3,045.5,0.451,746.4,01.17,0.508
2015-02-18 00:06:00,1822E-3,5C000000,-0724,0836,12115,029.1,045.5,0.451,746.4,01.17,0.508
2015-02-18 00:07:00,1900E-3,5C000000,-0724,0837,12116,028.9,045.5,0.452,746.4,01.17,0.508
2015-02-18 00:08:00,1896E-3,5C000000,-0724,0836,12087,028.6,045.4,0.452,746.4,01.17,0.508
2015-02-18 00:09:00,1965E-3,5C000000,-0724,0836,12115,028.4,045.4,0.453,746.4,01.17,0.508
2015-02-18 00:10:00,1824E-3,5C000000,-0724,0836,12092,028.1,045.4,0.453,746.4,01.17,0.508
2015-02-18 00:11:00,1920E-3,5C000000,-0724,0835,11870,027.9,045.4,0.453,746.4,01.17,0.508
2015-02-18 00:12:00,1895E-3,5C000000,-0724,0835,12147,027.6,045.4,0.454,746.4,01.17,0.508
2015-02-18 00:13:00,1855E-3,5C000000,-0724,0835,12056,027.4,045.4,0.454,746.4,01.17,0.508
2015-02-18 00:14:00,2028E-3,5C000000,-0724,0836,12246,027.2,045.4,0.454,746.3,01.17,0.508
2015-02-18 00:15:00,2024E-3,5C000000,-0724,0835,12216,027.0,045.4,0.455,746.3,01.17,0.508
2015-02-18 00:16:00,1908E-3,5C000000,-0724,0836,12191,026.9,045.4,0.455,746.3,01.17,0.508
2015-02-18 00:17:00,1893E-3,5C000000,-0724,0835,12257,026.8,045.4,0.455,746.3,01.17,0.508
2015-02-18 00:18:00,1894E-3,5C000000,-0724,0835,12136,026.7,045.4,0.455,746.2,01.17,0.508
2015-02-18 00:19:00,1992E-3,5C000000,-0724,0836,12166,026.7,045.4,0.456,746.2,01.17,0.508
2015-02-18 00:20:00,2049E-3,5C000000,-0724,0836,12126,026.7,045.4,0.455,746.2,01.17,0.508
2015-02-18 00:21:00,1843E-3,5C000000,-0724,0835,12008,026.8,045.4,0.456,746.2,01.17,0.508
2015-02-18 00:22:00,1980E-3,5C000000,-0724,0836,11938,026.9,045.4,0.456,746.2,01.17,0.508
2015-02-18 00:23:00,1949E-3,5C000000,-0724,0837,12241,027.0,045.4,0.455,746.3,01.17,0.508
2015-02-18 00:24:00,1856E-3,5C000000,-0724,0836,12198,027.1,045.4,0.455,746.3,01.17,0.508
2015-02-18 00:25:00,1847E-3,5C000000,-0724,0836,12203,027.3,045.4,0.455,746.3,01.17,0.508
2015-02-18 00:26:00,1935E-3,5C000000,-0724,0837,12212,027.4,045.4,0.455,746.3,01.17,0.508
2015-02-18 00:27:00,1980E-3,5C000000,-0724,0836,12146,027.6,045.4,0.455,746.3,01.17,0.508
2015-02-18 00:28:00,1969E-3,5C000000,-0724,0836,12043,027.7,045.4,0.455,746.3,01.17,0.508
2015-02-18 00:29:00,1946E-3,5C000000,-0724,0836,12212,027.9,045.4,0.455,746.3,01.17,0.508
2015-02-18 00:30:00,1960E-3,5C000000,-0724,0837,12145,027.9,045.4,0.454,746.3,01.17,0.508
2015-02-18 00:31:00,1850E-3,5C000000,-0724,0836,12177,028.1,045.5,0.454,746.3,01.17,0.508
2015-02-18 00:32:00,1962E-3,5C000000,-0724,0836,11947,028.2,045.4,0.454,746.3,01.17,0.508
2015-02-18 00:33:00,1856E-3,5C000000,-0724,0837,12096,028.3,045.5,0.454,746.3,01.17,0.508
2015-02-18 00:34:00,1823E-3,5C000000,-0724,0836,12163,028.4,045.5,0.454,746.3,01.17,0.508
2015-02-18 00:35:00,2011E-3,5C000000,-0724,0835,12226,028.5,045.5,0.453,746.3,01.17,0.508
2015-02-18 00:36:00,1925E-3,5C000000,-0724,0837,12181,028.6,045.4,0.453,746.3,01.17,0.508
2015-02-18 00:37:00,1888E-3,5C000000,-0724,0836,12162,028.6,045.4,0.454,746.3,01.17,0.508
2015-02-18 00:38:00,1854E-3,5C000000,-0724,0836,12112,028.7,045.5,0.453,746.4,01.17,0.508
2015-02-18 00:39:00,1869E-3,5C000000,-0724,0836,11849,028.8,045.5,0.453,746.4,01.17,0.508
2015-02-18 00:40:00,1933E-3,5C000000,-0724,0835,12183,028.9,045.5,0.453,746.3,01.17,0.508
2015-02-18 00:41:00,1762E-3,5C000000,-0724,0835,12127,029.0,045.5,0.453,746.3,01.17,0.508
2015-02-18 00:42:00,1915E-3,5C000000,-0724,0837,12069,029.1,045.5,0.453,746.4,01.17,0.508
2015-02-18 00:43:00,1997E-3,5C000000,-0724,0836,12316,029.1,045.5,0.452,746.3,01.17,0.508
2015-02-18 00:44:00,1759E-3,5C000000,-0724,0836,12039,029.2,045.5,0.452,746.3,01.17,0.508
2015-02-18 00:45:00,1956E-3,5C000000,-0724,0836,11850,029.3,045.5,0.452,746.3,01.17,0.508
2015-02-18 00:46:00,1845E-3,5C000000,-0724,0837,12098,029.4,045.5,0.452,746.3,01.17,0.508
2015-02-18 00:47:00,1996E-3,5C000000,-0724,0837,12243,029.4,045.5,0.452,746.3,01.17,0.508
2015-02-18 00:48:00,1935E-3,5C000000,-0724,0837,12069,029.5,045.5,0.452,746.3,01.17,0.508
2015-02-18 00:49:00,1935E-3,5C000000,-0724,0837,12112,029.6,045.5,0.452,746.3,01.17,0.508
2015-02-18 00:50:00,1961E-3,5C000000,-0724,0837,12106,029.6,045.5,0.451,746.3,01.17,0.508
2015-02-18 00:51:00,1887E-3,5C000000,-0724,0837,12162,029.7,045.5,0.451,746.3,01.17,0.508
2015-02-18 00:52:00,1914E-3,5C000000,-0724,0836,12161,029.7,045.5,0.451,746.3,01.17,0.508
2015-02-18 00:53:00,1988E-3,5C000000,-0724,0836,12152,029.8,045.5,0.451,746.2,01.17,0.508
2015-02-18 00:54:00,1950E-3,5C000000,-0724,0836,12142,029.8,045.5,0.451,746.2,01.17,0.508
2015-02-18 00:55:00,1992E-3,5C000000,-0724,0836,12113,029.9,045.5,0.451,746.2,01.17,0.508
2015-02-18 00:56:00,1977E-3,5C000000,-0724,0836,12114,030.0,045.5,0.451,746.2,01.17,0.508
2015-02-18 00:57:00,1945E-3,5C000000,-0724,0837,12297,030.0,045.5,0.451,746.2,01.17,0.508
2015-02-18 00:58:00,1984E-3,5C000000,-0724,0836,12100,030.0,045.5,0.451,746.2,01.17,0.508
2015-02-18 00:59:00,1919E-3,5C000000,-0724,0836,11953,030.0,045.5,0.450,746.2,01.17,0.508
2015-02-18 01:00:00,1983E-3,5C000000,-0724,0836,12135,029.9,045.5,0.451,746.2,01.17,0.508
2015-02-18 01:01:00,1803E-3,5C000000,-0724,0836,12082,029.8,045.5,0.451,746.2,01.17,0.508
2015-02-18 01:02:00,1920E-3,5C000000,-0724,0835,12032,029.7,045.5,0.451,746.2,01.17,0.508
2015-02-18 01:03:00,1950E-3,5C000000,-0724,0837,12107,029.5,045.5,0.451,746.3,01.17,0.508
2015-02-18 01:04:00,1945E-3,5C000000,-0724,0836,12092,029.4,045.5,0.451,746.3,01.17,0.508
2015-02-18 01:05:00,1811E-3,5C000000,-0724,0836,11951,029.3,045.5,0.451,746.3,01.17,0.508
2015-02-18 01:06:00,1978E-3,5C000000,-0724,0836,12143,029.1,045.5,0.452,746.3,01.17,0.508
2015-02-18 01:07:00,1827E-3,5C000000,-0724,0836,11986,028.9,045.5,0.452,746.3,01.17,0.508
2015-02-18 01:08:00,1886E-3,5C000000,-0724,0836,12164,028.7,045.5,0.452,746.3,01.17,0.508
2015-02-18 01:09:00,1878E-3,5C000000,-0724,0837,12170,028.5,045.5,0.453,746.4,01.17,0.508
2015-02-18 01:10:00,1972E-3,5C000000,-0724,0836,12351,028.2,045.4,0.453,746.4,01.17,0.508
2015-02-18 01:11:00,1953E-3,5C000000,-0724,0835,12243,028.0,045.4,0.453,746.4,01.17,0.508
2015-02-18 01:12:00,1919E-3,5C000000,-0724,0835,12077,027.7,045.4,0.453,746.4,01.17,0.508
2015-02-18 01:13:00,1953E-3,5C000000,-0724,0835,11930,027.4,045.4,0.454,746.4,01.17,0.508
2015-02-18 01:14:00,1888E-3,5C000000,-0724,0835,12014,027.3,045.4,0.454,746.4,01.17,0.508
2015-02-18 01:15:00,1869E-3,5C000000,-0724,0835,12043,027.1,045.4,0.455,746.3,01.17,0.508
2015-02-18 01:16:00,1849E-3,5C000000,-0724,0836,12214,026.9,045.4,0.455,746.4,01.17,0.508
2015-02-18 01:17:00,1970E-3,5C000000,-0724,0836,12332,026.8,045.4,0.455,746.3,01.17,0.508
2015-02-18 01:18:00,1957E-3,5C000000,-0724,0836,12167,026.7,045.4,0.455,746.3,01.17,0.508
2015-02-18 01:19:00,2082E-3,5C000000,-0724,0835,12211,026.6,045.4,0.455,746.4,01.17,0.508
2015-02-18 01:20:00,1811E-3,5C000000,-0724,0834,12142,026.6,045.4,0.456,746.4,01.17,0.508
2015-02-18 01:21:00,2017E-3,5C000000,-0724,0834,12190,026.7,045.4,0.455,746.3,01.17,0.508
2015-02-18 01:22:00,1922E-3,5C000000,-0724,0836,12076,026.8,045.4,0.456,746.4,01.17,0.508
2015-02-18 01:23:00,1905E-3,5C000000,-0724,0835,12109,026.9,045.5,0.456,746.3,01.17,0.508
2015-02-18 01:24:00,2056E-3,5C000000,-0724,0835,12102,027.0,045.5,0.456,746.3,01.17,0.508
2015-02-18 01:25:00,1942E-3,5C000000,-0724,0835,12131,027.2,045.4,0.455,746.3,01.17,0.508
2015-02-18 01:26:00,1878E-3,5C000000,-0724,0836,12129,027.3,045.4,0.455,746.3,01.17,0.508
2015-02-18 01:27:00,1884E-3,5C000000,-0724,0835,12274,027.5,045.4,0.455,746.3,01.17,0.508
2015-02-18 01:28:00,1913E-3,5C000000,-0724,0837,12071,027.6,045.4,0.455,746.3,01.17,0.508
2015-02-18 01:29:00,1873E-3,5C000000,-0724,0835,12143,027.7,045.5,0.455,746.3,01.17,0.508
2015-02-18 01:30:00,1958E-3,5C000000,-0724,0836,12174,027.8,045.5,0.454,746.3,01.17,0.508
2015-02-18 01:31:00,1941E-3,5C000000,-0724,0837,12162,027.9,045.5,0.454,746.3,01.17,0.508
2015-02-18 01:32:00,1954E-3,5C000000,-0724,0835,12039,028.1,045.4,0.454,746.2,01.17,0.508
2015-02-18 01:33:00,1734E-3,5C000000,-0724,0836,12168,028.2,045.4,0.454,746.1,01.17,0.508
2015-02-18 01:34:00,1854E-3,5C000000,-0724,0836,12200,028.3,045.4,0.453,746.1,01.17,0.508
2015-02-18 01:35:00,1977E-3,5C000000,-0724,0836,12164,028.4,045.5,0.454,746.1,01.17,0.508
2015-02-18 01:36:00,1974E-3,5C000000,-0724,0836,12107,028.5,045.5,0.454,746.1,01.17,0.508
2015-02-18 01:37:00,2016E-3,5C000000,-0724,0835,11996,028.6,045.5,0.453,746.1,01.17,0.508
2015-02-18 01:38:00,1972E-3,5C000000,-0724,0836,12166,028.7,045.5,0.453,746.1,01.17,0.508
2015-02-18 01:39:00,1891E-3,5C000000,-0724,0836,11929,028.7,045.5,0.453,746.1,01.17,0.508
2015-02-18 01:40:00,1878E-3,5C000000,-0724,0835,12046,028.8,045.5,0.453,746.1,01.17,0.508
2015-02-18 01:41:00,1958E-3,5C000000,-0724,0837,12177,029.0,045.5,0.452,746.1,01.17,0.508
2015-02-18 01:42:00,1870E-3,5C000000,-0724,0836,12305,029.0,045.5,0.452,746.1,01.17,0.508
2015-02-18 01:43:00,2048E-3,5C000000,-0724,0836,12020,029.1,045.5,0.453,746.1,01.17,0.508
2015-02-18 01:44:00,1844E-3,5C000000,-0724,0836,12082,029.2,045.5,0.452,746.1,01.17,0.508
2015-02-18 01:45:00,1968E-3,5C000000,-0724,0835,12046,029.3,045.5,0.452,746.1,01.17,0.508
2015-02-18 01:46:00,1953E-3,5C000000,-0724,0837,12237,029.3,045.5,0.452,746.1,01.17,0.508
2015-02-18 01:47:00,2034E-3,5C000000,-0724,0835,12138,029.4,045.5,0.452,746.2,01.17,0.508
2015-02-18 01:48:00,1967E-3,5C000000,-0724,0836,12226,029.5,045.5,0.452,746.1,01.17,0.508
2015-02-18 01:49:00,1819E-3,5C000000,-0724,0837,11997,029.5,045.5,0.452,746.2,01.17,0.508
2015-02-18 01:50:00,1898E-3,5C000000,-0724,0836,12219,029.6,045.5,0.452,746.1,01.17,0.508
2015-02-18 01:51:00,1917E-3,5C000000,-0724,0836,12141,029.7,045.5,0.451,746.1,01.17,0.508
2015-02-18 01:52:00,1897E-3,5C000000,-0724,0836,12214,029.7,045.5,0.451,746.2,01.17,0.508
2015-02-18 01:53:00,1871E-3,5C000000,-0724,0836,12027,029.8,045.5,0.451,746.2,01.17,0.508
2015-02-18 01:54:00,1914E-3,5C000000,-0724,0836,12077,029.8,045.5,0.451,746.1,01.17,0.508
2015-02-18 01:55:00,2060E-3,5C000000,-0724,0837,12127,029.9,045.5,0.451,746.1,01.17,0.508
2015-02-18 01:56:00,1874E-3,5C000000,-0724,0836,12221,029.9,045.5,0.451,746.1,01.17,0.508
2015-02-18 01:57:00,1945E-3,5C000000,-0724,0837,12244,029.9,045.5,0.451,746.1,01.17,0.508
2015-02-18 01:58:00,1907E-3,5C000000,-0724,0836,11973,029.9,045.5,0.451,746.1,01.17,0.508
2015-02-18 01:59:00,2070E-3,5C000000,-0724,0837,12170,029.8,045.5,0.451,746.1,01.17,0.508
2015-02-18 02:00:00,1933E-3,5C000000,-0724,0835,12169,029.7,045.5,0.451,746.1,01.17,0.508
2015-02-18 02:01:00,1829E-3,5C000000,-0724,0836,12188,029.6,045.5,0.451,746.1,01.17,0.508
2015-02-18 02:02:00,1924E-3,5C000000,-0724,0836,12245,029.5,045.5,0.451,746.1,01.17,0.508
2015-02-18 02:03:00,1949E-3,5C000000,-0724,0837,12265,029.3,045.5,0.452,746.1,01.17,0.508
2015-02-18 02:04:00,1840E-3,5C000000,-0724,0837,12207,029.2,045.5,0.451,746.1,01.17,0.508
2015-02-18 02:05:00,1962E-3,5C000000,-0724,0835,12032,029.1,045.5,0.452,746.1,01.17,0.508
2015-02-18 02:06:00,1895E-3,5C000000,-0724,0836,12100,028.9,045.5,0.452,746.1,01.17,0.508
2015-02-18 02:07:00,1795E-3,5C000000,-0724,0836,12220,028.7,045.5,0.452,746.1,01.17,0.508
2015-02-18 02:08:00,2006E-3,5C000000,-0724,0835,12149,028.5,045.5,0.452,746.1,01.17,0.508
2015-02-18 02:09:00,1942E-3,5C000000,-0724,0835,12262,028.2,045.4,0.453,746.2,01.17,0.508
2015-02-18 02:10:00,1948E-3,5C000000,-0724,0834,12200,028.0,045.4,0.453,746.2,01.17,0.508
2015-02-18 02:11:00,1872E-3,5C000000,-0724,0835,12161,027.7,045.4,0.454,746.2,01.17,0.508
2015-02-18 02:12:00,1857E-3,5C000000,-0724,0835,12169,027.5,045.4,0.454,746.2,01.17,0.508
2015-02-18 02:13:00,1931E-3,5C000000,-0724,0835,12069,027.3,045.4,0.454,746.2,01.17,0.508
2015-02-18 02:14:00,1835E-3,5C000000,-0724,0835,12196,027.1,045.4,0.454,746.2,01.17,0.508
2015-02-18 02:15:00,1921E-3,5C000000,-0724,0834,12094,027.0,045.4,0.455,746.1,01.17,0.508
2015-02-18 02:16:00,1866E-3,5C000000,-0724,0835,12157,026.8,045.4,0.455,746.1,01.17,0.508
2015-02-18 02:17:00,1840E-3,5C000000,-0724,0836,12267,026.6,045.4,0.455,746.1,01.17,0.508
2015-02-18 02:18:00,1938E-3,5C000000,-0724,0835,12176,026.6,045.4,0.456,746.1,01.17,0.508
2015-02-18 02:19:00,1991E-3,5C000000,-0724,0835,12155,026.6,045.4,0.456,746.1,01.17,0.508
2015-02-18 02:20:00,1856E-3,5C000000,-0724,0835,11734,026.6,045.4,0.456,746.1,01.17,0.508
2015-02-18 02:21:00,1885E-3,5C000000,-0724,0835,11931,026.6,045.4,0.456,746.1,01.17,0.508
2015-02-18 02:22:00,1892E-3,5C000000,-0724,0836,12153,026.8,045.4,0.456,746.1,01.17,0.508
2015-02-18 02:23:00,1840E-3,5C000000,-0724,0836,12041,026.9,045.4,0.456,746.1,01.17,0.508
2015-02-18 02:24:00,1825E-3,5C000000,-0724,0836,12052,027.0,045.4,0.456,746.1,01.17,0.508
2015-02-18 02:25:00,1838E-3,5C000000,-0724,0835,12065,027.2,045.4,0.456,746.1,01.17,0.508
2015-02-18 02:26:00,1943E-3,5C000000,-0724,0835,12123,027.3,045.5,0.456,746.1,01.17,0.508
2015-02-18 02:27:00,1978E-3,5C000000,-0724,0836,11778,027.5,045.5,0.455,746.1,01.17,0.508
2015-02-18 02:28:00,2002E-3,5C000000,-0724,0836,12190,027.6,045.4,0.455,746.1,01.17,0.508
2015-02-18 02:29:00,1946E-3,5C000000,-0724,0835,12045,027.7,045.4,0.455,746.1,01.17,0.508
2015-02-18 02:30:00,1949E-3,5C000000,-0724,0836,12095,027.9,045.4,0.455,746.1,01.17,0.508
2015-02-18 02:31:00,1975E-3,5C000000,-0724,0836,12132,028.0,045.5,0.454,746.1,01.17,0.508
2015-02-18 02:32:00,1981E-3,5C000000,-0724,0836,12096,028.1,045.5,0.454,746.1,01.17,0.508
2015-02-18 02:33:00,1881E-3,5C000000,-0724,0837,12103,028.2,045.4,0.454,746.1,01.17,0.508
2015-02-18 02:34:00,1993E-3,5C000000,-0724,0837,12047,028.3,045.5,0.454,746.1,01.17,0.508
2015-02-18 02:35:00,1899E-3,5C000000,-0724,0837,12232,028.4,045.5,0.454,746.1,01.17,0.508
2015-02-18 02:36:00,1922E-3,5C000000,-0724,0838,12120,028.5,045.5,0.454,746.1,01.17,0.508
2015-02-18 02:37:00,1936E-3,5C000000,-0724,0836,12260,028.6,045.5,0.453,746.1,01.17,0.508
2015-02-18 02:38:00,1997E-3,5C000000,-0724,0836,12144,028.7,045.5,0.453,746.1,01.17,0.508
2015-02-18 02:39:00,1932E-3,5C000000,-0724,0836,12248,028.8,045.5,0.453,746.1,01.17,0.508
2015-02-18 02:40:00,1935E-3,5C000000,-0724,0836,12163,028.9,045.5,0.453,746.1,01.17,0.508
2015-02-18 02:41:00,1838E-3,5C000000,-0724,0836,12104,029.0,045.5,0.452,746.1,01.17,0.508
2015-02-18 02:42:00,1998E-3,5C000000,-0724,0836,12150,029.1,045.5,0.452,746.1,01.17,0.508
2015-02-18 02:43:00,1940E-3,5C000000,-0724,0838,12227,029.2,045.5,0.453,746.1,01.17,0.508
2015-02-18 02:44:00,1845E-3,5C000000,-0724,0836,12306,029.3,045.5,0.452,746.1,01.17,0.508
2015-02-18 02:45:00,1861E-3,5C000000,-0724,0836,12063,029.3,045.5,0.452,746.0,01.17,0.508
2015-02-18 02:46:00,1916E-3,5C000000,-0724,0836,12156,029.4,045.5,0.451,746.0,01.17,0.508
2015-02-18 02:47:00,2034E-3,5C000000,-0724,0835,12111,029.4,045.5,0.451,746.1,01.17,0.508
2015-02-18 02:48:00,2098E-3,5C000000,-0724,0836,11964,029.5,045.5,0.451,746.0,01.17,0.508
2015-02-18 02:49:00,1941E-3,5C000000,-0724,0836,12175,029.6,045.5,0.451,746.0,01.17,0.508
2015-02-18 02:50:00,2026E-3,5C000000,-0724,0837,12295,029.7,045.5,0.451,746.0,01.17,0.508
2015-02-18 02:51:00,1862E-3,5C000000,-0724,0836,12165,029.7,045.5,0.451,746.0,01.17,0.508
2015-02-18 02:52:00,1656E-3,5C000000,-0724,0837,12111,029.8,045.5,0.451,746.0,01.17,0.508
2015-02-18 02:53:00,1981E-3,5C000000,-0724,0836,12057,029.9,045.5,0.451,746.0,01.17,0.508
2015-02-18 02:54:00,1889E-3,5C000000,-0724,0836,12018,029.9,045.5,0.451,746.0,01.17,0.508
2015-02-18 02:55:00,1973E-3,5C000000,-0724,0837,12161,030.0,045.5,0.451,746.0,01.17,0.508
2015-02-18 02:56:00,1858E-3,5C000000,-0724,0837,12202,030.0,045.5,0.451,746.0,01.17,0.508
2015-02-18 02:57:00,1989E-3,5C000000,-0724,0836,12102,030.0,045.5,0.451,746.0,01.17,0.508
2015-02-18 02:58:00,1877E-3,5C000000,-0724,0837,12184,030.0,045.5,0.451,746.0,01.17,0.508
2015-02-18 02:59:00,1874E-3,5C000000,-0724,0836,12149,029.9,045.5,0.451,746.0,01.17,0.508
2015-02-18 03:00:00,1913E-3,5C000000,-0724,0836,12034,029.9,045.5,0.451,746.0,01.17,0.508
2015-02-18 03:01:00,2008E-3,5C000000,-0724,0837,12128,029.8,045.5,0.451,746.0,01.17,0.508
2015-02-18 03:02:00,1799E-3,5C000000,-0724,0835,12041,029.7,045.5,0.451,746.0,01.17,0.508
2015-02-18 03:03:00,1921E-3,5C000000,-0724,0836,11858,029.5,045.5,0.451,746.0,01.17,0.508
2015-02-18 03:04:00,1946E-3,5C000000,-0724,0836,12214,029.4,045.5,0.451,746.0,01.17,0.508
2015-02-18 03:05:00,1763E-3,5C000000,-0724,0836,12111,029.3,045.5,0.452,746.0,01.17,0.508
2015-02-18 03:06:00,1849E-3,5C000000,-0724,0835,11984,029.1,045.4,0.452,746.0,01.17,0.508
2015-02-18 03:07:00,1980E-3,5C000000,-0724,0836,11979,028.9,045.5,0.452,746.1,01.17,0.508
2015-02-18 03:08:00,1991E-3,5C000000,-0724,0835,12042,028.7,045.5,0.452,746.1,01.17,0.508
2015-02-18 03:09:00,1942E-3,5C000000,-0724,0835,12178,028.4,045.5,0.452,746.0,01.17,0.508
2015-02-18 03:10:00,1916E-3,5C000000,-0724,0836,12340,028.2,045.4,0.453,746.1,01.17,0.508
2015-02-18 03:11:00,1874E-3,5C000000,-0724,0835,12098,027.9,045.4,0.453,746.0,01.17,0.508
2015-02-18 03:12:00,1974E-3,5C000000,-0724,0836,12258,027.7,045.4,0.454,746.0,01.17,0.508
2015-02-18 03:13:00,2097E-3,5C000000,-0724,0835,12253,027.5,045.4,0.454,746.0,01.17,0.508
2015-02-18 03:14:00,1994E-3,5C000000,-0724,0834,12146,027.3,045.4,0.455,746.0,01.17,0.508
2015-02-18 03:15:00,1895E-3,5C000000,-0724,0836,12201,027.1,045.4,0.455,746.0,01.17,0.508
2015-02-18 03:16:00,2032E-3,5C000000,-0724,0836,12166,026.9,045.4,0.455,746.0,01.17,0.508
2015-02-18 03:17:00,1798E-3,5C000000,-0724,0836,12149,026.8,045.4,0.455,746.0,01.17,0.508
2015-02-18 03:18:00,1859E-3,5C000000,-0724,0836,12262,026.6,045.4,0.456,746.0,01.17,0.508
2015-02-18 03:19:00,1988E-3,5C000000,-0724,0836,12004,026.6,045.4,0.456,746.0,01.17,0.508
2015-02-18 03:20:00,1981E-3,5C000000,-0724,0835,12240,026.5,045.4,0.456,746.0,01.17,0.508
2015-02-18 03:21:00,1937E-3,5C000000,-0724,0836,12197,026.6,045.4,0.456,746.0,01.17,0.508
2015-02-18 03:22:00,1982E-3,5C000000,-0724,0836,12006,026.6,045.4,0.456,746.0,01.17,0.508
2015-02-18 03:23:00,1891E-3,5C000000,-0724,0836,12158,026.7,045.4,0.456,746.0,01.17,0.508
2015-02-18 03:24:00,1814E-3,5C000000,-0724,0836,12253,026.9,045.5,0.456,746.0,01.17,0.508
2015-02-18 03:25:00,1875E-3,5C000000,-0724,0835,11985,027.0,045.5,0.456,746.0,01.17,0.508
2015-02-18 03:26:00,1947E-3,5C000000,-0724,0836,12165,027.1,045.4,0.456,746.0,01.17,0.508
2015-02-18 03:27:00,2027E-3,5C000000,-0724,0835,12138,027.3,045.4,0.455,746.0,01.17,0.508
2015-02-18 03:28:00,2050E-3,5C000000,-0724,0835,12272,027.5,045.4,0.455,746.0,01.17,0.508
2015-02-18 03:29:00,1874E-3,5C000000,-0724,0836,12068,027.6,045.4,0.455,746.0,01.17,0.508
2015-02-18 03:30:00,1863E-3,5C000000,-0724,0836,12192,027.7,045.5,0.455,746.0,01.17,0.508
2015-02-18 03:31:00,1939E-3,5C000000,-0724,0836,12030,027.9,045.4,0.455,746.0,01.17,0.508
2015-02-18 03:32:00,1936E-3,5C000000,-0724,0836,12169,028.0,045.4,0.454,746.0,01.17,0.508
2015-02-18 03:33:00,1922E-3,5C000000,-0724,0837,12214,028.1,045.5,0.454,746.0,01.17,0.508
2015-02-18 03:34:00,1920E-3,5C000000,-0724,0837,12146,028.2,045.5,0.454,746.0,01.17,0.508
2015-02-18 03:35:00,1946E-3,5C000000,-0724,0837,12120,028.3,045.5,0.453,746.0,01.17,0.508
2015-02-18 03:36:00,2132E-3,5C000000,-0724,0836,12089,028.4,045.5,0.454,746.0,01.17,0.508
2015-02-18 03:37:00,1869E-3,5C000000,-0724,0836,12291,028.5,045.5,0.454,746.0,01.17,0.508
2015-02-18 03:38:00,1951E-3,5C000000,-0724,0836,11976,028.7,045.5,0.453,746.0,01.17,0.508
2015-02-18 03:39:00,1956E-3,5C000000,-0724,0836,12050,028.8,045.5,0.453,746.0,01.17,0.508
2015-02-18 03:40:00,1934E-3,5C000000,-0724,0835,12113,028.8,045.5,0.453,745.9,01.17,0.508
2015-02-18 03:41:00,1986E-3,5C000000,-0724,0837,12013,029.0,045.5,0.452,745.9,01.17,0.508
2015-02-18 03:42:00,1949E-3,5C000000,-0724,0837,12090,029.0,045.5,0.452,745.9,01.17,0.508
2015-02-18 03:43:00,1921E-3,5C000000,-0724,0838,12167,029.1,045.5,0.453,745.8,01.17,0.508
2015-02-18 03:44:00,1799E-3,5C000000,-0724,0837,12093,029.2,045.5,0.452,745.8,01.17,0.508
2015-02-18 03:45:00,1893E-3,5C000000,-0724,0837,12158,029.3,045.5,0.452,745.8,01.17,0.508
2015-02-18 03:46:00,2039E-3,5C000000,-0724,0838,12163,029.4,045.5,0.452,745.8,01.17,0.508
2015-02-18 03:47:00,1916E-3,5C000000,-0724,0836,12066,029.4,045.5,0.452,745.8,01.17,0.508
2015-02-18 03:48:00,1999E-3,5C000000,-0724,0837,11941,029.5,045.5,0.452,745.8,01.17,0.508
2015-02-18 03:49:00,1884E-3,5C000000,-0724,0837,12086,029.6,045.5,0.452,745.8,01.17,0.508
2015-02-18 03:50:00,1987E-3,5C000000,-0724,0838,12186,029.6,045.5,0.451,745.8,01.17,0.508
2015-02-18 03:51:00,1893E-3,5C000000,-0724,0837,12182,029.7,045.5,0.451,745.8,01.17,0.508
2015-02-18 03:52:00,1956E-3,5C000000,-0724,0837,11977,029.8,045.5,0.451,745.8,01.17,0.508
2015-02-18 03:53:00,1891E-3,5C000000,-0724,0837,12150,029.8,045.5,0.451,745.9,01.17,0.508
2015-02-18 03:54:00,2041E-3,5C000000,-0724,0837,12148,029.8,045.5,0.451,745.9,01.17,0.508
2015-02-18 03:55:00,1949E-3,5C000000,-0724,0837,12102,029.8,045.5,0.451,745.9,01.17,0.508
2015-02-18 03:56:00,2003E-3,5C000000,-0724,0837,12114,029.7,045.5,0.451,746.0,01.17,0.508
2015-02-18 03:57:00,1983E-3,5C000000,-0724,0837,12099,029.6,045.5,0.451,746.0,01.17,0.508
2015-02-18 03:58:00,2031E-3,5C000000,-0724,0837,12320,029.5,045.5,0.451,746.0,01.17,0.508
2015-02-18 03:59:00,1831E-3,5C000000,-0724,0837,12179,029.4,045.5,0.451,746.0,01.17,0.508
2015-02-18 04:00:00,1930E-3,5C000000,-0724,0837,12045,029.3,045.5,0.451,745.9,01.17,0.508
2015-02-18 04:01:00,1943E-3,5C000000,-0724,0837,12098,029.2,045.5,0.452,745.9,01.17,0.508
2015-02-18 04:02:00,1941E-3,5C000000,-0724,0836,12220,029.1,045.5,0.451,745.9,01.17,0.508
2015-02-18 04:03:00,1983E-3,5C000000,-0724,0836,12257,028.9,045.5,0.452,745.9,01.17,0.508
2015-02-18 04:04:00,1805E-3,5C000000,-0724,0836,12050,028.7,045.5,0.452,745.9,01.17,0.508
2015-02-18 04:05:00,1984E-3,5C000000,-0724,0836,12146,028.5,045.4,0.452,745.9,01.17,0.508
2015-02-18 04:06:00,1987E-3,5C000000,-0724,0836,12197,028.2,045.4,0.453,745.9,01.17,0.508
2015-02-18 04:07:00,1957E-3,5C000000,-0724,0836,12163,027.9,045.4,0.453,745.9,01.17,0.508
2015-02-18 04:08:00,1838E-3,5C000000,-0724,0837,12260,027.7,045.4,0.454,745.8,01.17,0.508
2015-02-18 04:09:00,1967E-3,5C000000,-0724,0835,12087,027.5,045.4,0.454,745.8,01.17,0.508
2015-02-18 04:10:00,2038E-3,5C000000,-0724,0836,12066,027.3,045.4,0.454,745.8,01.17,0.508
2015-02-18 04:11:00,2002E-3,5C000000,-0724,0836,12131,027.1,045.4,0.455,745.8,01.17,0.508
2015-02-18 04:12:00,1911E-3,5C000000,-0724,0836,12187,027.0,045.4,0.455,745.8,01.17,0.508
2015-02-18 04:13:00,1953E-3,5C000000,-0724,0836,12182,026.8,045.4,0.455,745.9,01.17,0.508
2015-02-18 04:14:00,1863E-3,5C000000,-0724,0837,12072,026.7,045.4,0.456,745.9,01.17,0.508
2015-02-18 04:15:00,2027E-3,5C000000,-0724,0835,12004,026.6,045.4,0.455,745.9,01.17,0.508
2015-02-18 04:16:00,1889E-3,5C000000,-0724,0835,12078,026.5,045.4,0.456,746.0,01.17,0.508
2015-02-18 04:17:00,1792E-3,5C000000,-0724,0836,12060,026.6,045.4,0.456,746.0,01.17,0.508
2015-02-18 04:18:00,1975E-3,5C000000,-0724,0836,12154,026.6,045.4,0.456,746.0,01.17,0.508
2015-02-18 04:19:00,2054E-3,5C000000,-0724,0836,12092,026.7,045.4,0.456,746.0,01.17,0.508
2015-02-18 04:20:00,1933E-3,5C000000,-0724,0836,11936,026.8,045.5,0.456,746.0,01.17,0.508